Location: Bluff Heights
(33.7692°N, 118.1592°W)
Time: 08:43:00
(UTC+00:00)

Tiros 1 - Pass Details

Date: 25 July 2021
Orbit: 630 x 663 km, 48.4° (Epoch: 22 September)

Event Time Altitude Azimuth Distance (km) Brightness Sun altitude
Rises 08:58:02 0° 314° (NW) 2,941 10.8 -34.9°
Reaches altitude 10° 09:00:57 10° 332° (NNW) 2,025 10.1 -34.7°
Maximum altitude 09:04:20 20° 19° (NNE) 1,489 9.6 -34.5°
Drops below altitude 10° 09:07:42 10° 66° (ENE) 2,010 10.1 -34.2°
Sets 09:10:34 0° 84° (E) 2,913 10.8 -34.0°
